Wind_Speed
18 15 13 10 2 5 11 11 11 7 11 29 34 20 14 7 6 6 29 21 21 27 24 23 21 20 18 16 14 13 13 13 13 13 13 13 12 11 12 12 10 10 8 9 8 8 8 8 8
22 23 3 5 2 9 4 9 6 11 29 37 30 25 27 22 31 30 27 18 21 27 24 22 20 18 17 15 14 13 12 11 11 11 11 11 11 12 11 10 9 8 8 7 7 6 7 7 8
25 22 9 1 2 6 6 11 7 15 34 34 20 26 12 19 21 23 24 17 29 27 24 22 19 17 16 14 13 13 12 11 10 8 9 9 10 11 10 8 8 8 7 6 6 5 6 7 9
16 7 2 2 15 8 10 12 17 22 27 24 21 9 27 22 19 31 21 15 23 24 22 21 18 16 15 14 13 12 12 11 10 8 8 8 9 9 8 8 6 6 6 6 6 5 6 6 10
11 6 4 3 15 9 4 19 23 13 24 27 23 13 16 23 27 21 18 19 21 19 21 19 17 16 14 13 12 12 11 11 11 9 8 8 8 9 7 6 5 5 6 6 5 5 5 7 11
8 2 5 4 9 14 6 14 23 14 29 26 25 22 20 23 22 22 28 26 19 19 18 17 17 15 14 13 13 11 10 10 9 9 9 9 7 7 6 5 5 5 4 4 5 5 5 7 11
6 5 9 7 2 7 6 8 19 18 21 15 26 11 20 22 19 16 17 25 18 16 17 16 16 15 14 13 12 12 10 9 8 8 8 8 6 5 4 4 5 4 4 5 4 4 4 4 9
10 5 16 10 5 6 13 17 26 20 11 28 21 8 17 24 23 17 14 15 18 15 11 16 16 15 14 14 13 12 11 9 8 7 5 5 6 6 4 3 2 2 2 3 5 6 4 4 7
20 7 4 10 15 6 23 22 29 21 23 18 9 30 31 26 24 20 20 18 15 12 12 15 16 15 14 13 11 10 9 8 7 7 6 6 6 3 4 3 1 0 1 1 3 4 4 5 5
5 7 12 14 7 4 11 26 20 11 16 18 27 28 27 26 28 26 20 23 19 12 9 8 7 11 13 12 11 9 8 7 6 6 6 7 7 4 3 4 3 3 3 3 4 4 3 6 7
7 5 4 4 11 11 7 18 10 19 0 16 29 28 28 26 27 23 24 19 19 14 11 8 5 6 9 10 9 9 9 9 9 8 8 7 9 5 8 7 6 5 3 3 4 3 5 6 9
6 13 9 6 5 14 10 23 14 19 16 30 29 29 28 27 24 19 23 22 21 20 15 11 11 10 8 12 10 9 9 8 9 9 8 9 10 9 11 8 10 10 5 6 7 6 6 9 8
3 4 3 4 7 8 1 12 19 18 27 30 28 29 26 26 22 18 20 18 21 19 16 16 17 14 12 14 10 11 9 9 9 9 10 10 11 12 13 17 11 10 7 9 8 13 12 9 10
10 12 10 11 7 6 6 7 16 23 33 30 30 28 24 25 21 17 20 19 20 17 12 13 17 15 12 7 11 12 11 10 14 11 12 11 10 11 16 17 19 17 13 13 15 16 15 8 13
5 6 9 13 15 6 9 6 2 22 30 31 29 25 23 24 21 20 17 16 17 17 14 14 16 11 8 8 10 14 12 13 10 14 12 13 13 15 14 15 17 17 21 24 23 19 20 19 16
4 6 6 12 10 8 7 4 5 10 25 27 29 26 25 23 21 19 19 15 13 18 16 16 16 14 11 11 8 11 13 13 12 16 13 12 17 19 16 17 16 13 12 15 19 18 18 21 16
6 7 7 2 5 4 4 5 11 19 23 25 26 24 26 22 19 18 18 16 15 13 19 18 11 5 13 11 11 7 12 14 8 13 13 13 14 15 16 18 18 16 15 16 13 21 17 17 19
5 3 8 8 7 7 4 4 8 19 27 26 23 23 27 22 18 18 18 13 15 16 22 20 9 17 10 9 20 10 14 14 8 13 11 14 18 19 18 20 20 19 21 18 14 17 20 18 16
6 7 8 5 7 6 2 5 8 20 24 23 26 25 28 24 20 18 14 10 12 16 17 16 13 11 14 10 15 15 4 10 7 15 13 14 19 17 22 22 21 19 21 22 21 19 20 20 18
7 7 8 8 7 6 3 9 11 9 15 29 30 29 26 23 23 21 19 15 12 11 11 14 9 5 11 14 8 5 13 12 8 12 13 13 14 16 20 20 19 16 17 21 21 20 21 22 22
5 5 7 6 6 3 4 7 9 7 13 28 32 33 28 27 26 23 21 17 16 15 11 9 5 10 14 18 15 14 11 2 4 8 10 11 13 12 14 13 15 16 15 16 17 18 19 21 19
6 9 7 3 6 3 2 6 7 6 8 9 26 30 29 29 27 27 23 18 12 9 12 9 3 11 8 10 12 6 2 3 2 3 5 10 11 13 15 16 17 13 13 14 12 12 18 19 21
10 4 6 6 6 4 10 4 7 7 5 5 8 27 31 30 32 27 21 17 13 14 12 9 8 10 12 10 9 5 2 5 6 4 4 8 8 10 15 19 15 10 11 11 10 10 12 16 19
5 7 6 5 1 3 5 2 4 4 1 1 9 18 31 28 28 23 20 18 15 15 10 11 11 12 13 11 10 11 12 7 4 2 3 1 8 14 16 13 10 8 7 8 7 10 8 11 16
4 3 3 4 3 5 7 3 9 14 8 10 16 25 31 31 29 27 25 20 18 18 15 11 14 15 16 12 10 8 8 5 1 4 3 7 11 11 12 10 8 7 6 10 6 1 4 5 11
7 9 5 3 2 5 3 4 2 10 16 11 13 27 33 32 28 26 23 18 22 21 17 13 12 14 16 12 10 12 7 4 2 2 3 8 9 10 10 10 10 9 6 7 8 5 1 2 6
5 4 10 4 3 4 4 2 4 5 5 9 9 24 29 30 26 23 19 15 18 21 18 15 13 12 12 8 8 9 9 6 3 3 7 8 9 12 11 11 10 9 9 5 6 6 4 2 2
7 4 5 4 1 5 6 1 3 3 1 6 11 16 25 27 28 24 20 16 16 19 18 15 11 11 14 7 8 8 5 6 6 6 7 7 11 11 12 11 10 9 10 12 9 9 10 6 5
3 4 3 3 4 3 3 3 6 8 6 11 31 17 21 25 27 25 23 17 14 16 20 13 9 12 14 8 12 8 4 6 7 6 6 9 11 11 13 15 14 12 11 9 9 10 11 11 9
9 8 7 5 7 4 4 3 3 9 16 24 35 26 20 18 23 25 22 16 13 12 13 5 10 10 8 13 12 9 4 4 5 3 9 10 11 12 14 14 13 14 14 14 14 13 12 11 10
Wind_Direction
360 6 331 316 16 81 62 54 65 61 65 59 68 68 76 69 103 135 156 168 145 151 147 145 141 137 135 131 127 126 120 121 119 121 126 122 122 120 122 129 124 117 106 108 114 115 111 110 105
3 354 36 257 95 81 74 90 74 79 83 71 73 75 81 77 105 125 135 150 149 154 147 142 138 138 138 137 134 132 124 121 121 123 126 122 121 121 129 131 131 124 113 112 111 113 116 117 117
6 347 331 357 142 112 120 111 90 86 93 90 77 54 94 117 120 137 138 133 149 150 147 140 139 139 138 137 137 135 132 128 130 132 130 129 124 129 142 144 137 137 125 130 123 117 118 126 129
10 2 5 347 87 70 94 115 109 95 95 102 107 62 76 104 113 137 134 128 158 146 148 144 143 142 140 139 141 142 137 136 139 141 137 134 131 136 139 141 152 136 140 144 137 124 118 117 136
78 56 34 277 105 107 85 112 97 103 105 102 98 95 92 109 130 126 129 139 139 141 153 148 147 145 145 143 142 143 145 145 146 149 147 141 139 139 151 141 132 137 151 153 154 145 136 126 139
43 133 66 321 110 96 66 104 123 130 109 109 107 108 112 129 129 129 147 153 146 142 156 156 153 150 150 150 147 146 149 150 151 152 151 145 147 143 150 139 136 144 145 158 166 172 162 145 152
96 38 338 304 209 127 135 144 101 90 119 116 130 116 138 140 140 149 164 154 162 169 157 168 163 158 157 155 152 152 156 158 160 160 154 153 154 147 148 146 141 152 161 172 189 191 195 161 160
107 96 339 298 141 106 150 117 100 97 92 132 132 143 148 147 146 148 146 159 154 158 153 176 177 170 166 166 165 164 166 169 169 167 167 164 145 145 160 175 145 127 164 177 198 212 203 180 156
92 73 236 240 249 106 127 104 88 102 70 58 130 148 149 151 153 140 140 144 151 145 147 179 184 179 176 176 176 177 178 180 177 173 172 177 168 117 144 166 137 39 314 215 219 219 201 195 185
115 155 222 246 27 90 112 123 133 113 101 85 103 133 142 154 160 162 149 155 155 155 157 168 194 195 189 185 194 195 201 199 198 198 183 166 157 232 240 250 255 321 294 214 215 226 209 196 201
171 186 214 279 9 18 92 109 117 123 73 152 139 148 154 160 169 170 181 184 173 186 196 227 234 241 219 207 198 215 221 217 206 199 186 190 198 229 228 248 272 282 261 255 205 211 255 215 216
144 253 262 90 63 36 29 141 128 160 177 159 157 158 160 167 169 184 180 188 196 200 212 226 230 229 224 229 223 243 236 232 237 233 223 229 242 222 212 238 242 244 218 243 228 244 223 195 201
218 206 62 227 142 107 188 0 143 135 147 153 156 163 167 176 176 183 196 194 190 192 195 209 218 220 215 219 221 238 234 242 239 247 245 243 249 247 232 233 237 217 224 235 235 241 238 233 220
3 347 339 319 277 178 90 30 115 125 144 154 158 166 175 180 180 185 189 188 195 186 192 207 209 212 216 215 212 223 226 231 237 240 275 257 249 256 254 250 241 240 237 234 248 253 232 252 254
311 317 280 244 249 120 107 31 114 135 145 151 161 172 183 181 180 179 182 187 202 192 201 199 199 197 217 235 238 249 246 238 253 268 250 270 272 283 280 278 261 251 248 250 261 245 232 245 257
237 258 270 261 180 162 124 248 252 186 149 155 166 177 184 183 182 183 186 192 201 196 195 187 187 196 207 223 231 230 230 232 241 258 265 266 276 275 279 276 276 275 262 258 254 236 237 244 247
293 248 243 83 146 149 147 220 236 208 159 162 169 176 174 173 181 186 188 189 196 202 189 200 218 235 222 252 229 243 230 224 238 244 256 267 275 268 271 273 272 283 273 257 259 229 248 249 230
290 260 309 132 165 178 319 225 213 222 165 164 159 163 166 171 178 185 185 199 206 204 208 211 218 299 232 354 249 288 254 221 223 245 263 264 268 275 278 277 277 276 265 261 243 237 240 240 234
11 341 332 330 118 83 354 292 203 183 158 158 162 162 169 172 180 180 171 182 194 205 218 245 280 197 249 337 262 237 185 252 245 245 262 266 276 287 292 289 284 278 267 265 259 249 246 244 239
346 324 306 308 132 114 210 283 282 188 174 164 163 170 174 174 180 184 185 188 170 190 227 251 270 284 124 60 136 234 224 213 257 247 248 283 284 301 312 304 300 291 276 266 261 258 251 244 245
310 273 291 272 354 355 189 276 261 246 154 161 172 176 175 177 183 179 176 184 203 221 238 252 272 127 145 115 119 168 203 232 279 246 264 289 316 329 326 323 312 296 289 274 263 258 251 245 245
279 277 315 323 21 282 25 283 274 217 165 142 163 167 178 181 184 176 177 183 189 208 229 251 263 136 149 143 141 164 77 39 209 256 305 312 329 318 300 319 318 294 295 289 272 244 245 240 238
245 345 5 342 308 10 310 33 296 41 42 110 103 172 180 184 181 175 184 185 190 200 212 212 163 142 151 161 149 144 338 215 188 260 281 337 335 308 304 314 316 316 303 300 273 245 239 243 243
353 357 341 303 229 355 283 70 0 309 249 246 198 223 167 171 172 178 175 180 182 196 203 167 163 155 151 160 170 183 188 191 216 276 18 294 306 297 307 320 329 334 337 337 283 251 234 245 245
160 21 319 331 45 217 265 28 187 211 204 184 190 149 155 160 165 168 172 176 179 183 179 184 175 165 162 172 165 160 141 146 222 355 264 304 305 326 350 359 359 360 357 10 0 246 213 224 243
187 169 172 271 153 236 355 240 303 101 57 61 120 148 156 157 166 173 178 181 176 182 187 198 180 161 156 158 154 147 135 148 286 297 324 334 340 8 29 24 28 16 356 18 31 38 57 225 257
270 191 219 228 289 38 214 195 259 18 82 101 159 159 157 160 169 176 182 188 179 186 186 181 164 160 151 164 155 153 166 187 128 76 3 5 32 41 37 39 46 43 41 61 45 33 26 75 65
170 242 12 344 274 282 301 190 210 39 76 330 347 146 155 165 167 176 185 185 181 186 182 182 171 156 168 158 148 131 121 90 107 50 15 24 50 46 37 43 42 47 58 61 56 55 60 63 76
270 261 266 154 141 170 286 260 221 195 162 45 19 311 161 169 175 176 177 180 176 184 182 189 188 175 166 155 137 137 131 79 87 42 16 60 64 52 43 52 48 60 60 60 61 60 55 62 67
209 215 183 131 275 221 176 259 3 99 74 94 91 295 319 167 168 163 163 165 175 155 160 176 213 179 162 151 142 157 163 65 110 62 74 68 67 59 50 56 53 51 64 61 61 60 59 57 57
Height
1495 1494 1490 1493 1504 1498 1511 1508 1495 1497 1499 1501 1501 1502 1507 1506 1510 1534 1527 1529 1532 1535 1538 1541 1543 1545 1548 1550 1552 1554 1556 1557 1558 1560 1562 1562 1563 1564 1565 1567 1568 1569 1569 1569 1570 1571 1571 1573 1574
1494 1491 1492 1493 1508 1520 1520 1501 1503 1499 1502 1503 1506 1509 1510 1514 1516 1525 1529 1533 1533 1536 1540 1542 1545 1547 1549 1550 1552 1554 1556 1557 1559 1561 1562 1563 1563 1564 1565 1567 1568 1568 1569 1570 1570 1571 1571 1573 1575
1493 1492 1493 1493 1502 1521 1519 1500 1500 1499 1503 1505 1511 1513 1514 1519 1522 1525 1529 1532 1534 1538 1541 1543 1546 1548 1550 1551 1553 1554 1556 1558 1560 1562 1563 1564 1564 1565 1566 1567 1568 1568 1569 1570 1571 1571 1572 1573 1576
1496 1494 1497 1503 1505 1499 1498 1498 1499 1503 1507 1509 1511 1517 1521 1523 1524 1524 1530 1532 1535 1540 1543 1544 1547 1549 1551 1552 1554 1555 1557 1559 1560 1563 1563 1564 1565 1566 1566 1567 1568 1568 1570 1570 1571 1572 1573 1574 1576
1498 1500 1511 1510 1502 1497 1493 1495 1499 1503 1507 1513 1514 1524 1525 1527 1527 1530 1532 1532 1536 1540 1543 1546 1548 1550 1552 1553 1555 1556 1557 1559 1560 1562 1564 1565 1566 1566 1567 1568 1568 1569 1570 1571 1571 1571 1572 1573 1575
1500 1497 1522 1529 1502 1496 1494 1497 1497 1501 1507 1515 1517 1523 1529 1532 1532 1533 1534 1536 1544 1543 1545 1547 1549 1551 1553 1554 1555 1557 1559 1560 1562 1562 1564 1565 1566 1566 1567 1568 1569 1569 1570 1571 1572 1572 1573 1573 1575
1509 1520 1527 1517 1507 1499 1496 1498 1500 1502 1508 1511 1516 1523 1530 1532 1534 1534 1535 1538 1544 1546 1545 1547 1550 1551 1553 1555 1556 1557 1559 1561 1562 1563 1564 1565 1566 1567 1568 1568 1569 1569 1570 1572 1572 1573 1574 1575 1577
1515 1525 1533 1525 1505 1502 1494 1499 1500 1504 1507 1512 1510 1521 1528 1530 1534 1535 1537 1538 1541 1545 1545 1548 1550 1551 1553 1554 1556 1558 1559 1561 1562 1564 1565 1566 1567 1568 1569 1569 1569 1571 1571 1572 1573 1574 1575 1576 1578
1514 1542 1549 1531 1511 1498 1492 1498 1501 1505 1508 1511 1511 1514 1523 1528 1532 1535 1537 1539 1542 1544 1546 1548 1550 1552 1553 1555 1556 1558 1559 1561 1563 1564 1565 1566 1567 1569 1569 1570 1571 1571 1573 1573 1573 1574 1575 1577 1577
1504 1527 1527 1503 1489 1492 1490 1494 1499 1504 1508 1515 1519 1522 1524 1528 1530 1535 1537 1540 1541 1542 1545 1548 1551 1553 1553 1555 1557 1559 1560 1561 1563 1564 1565 1566 1567 1568 1569 1570 1571 1572 1573 1572 1572 1573 1574 1576 1576
1500 1506 1498 1494 1491 1491 1491 1496 1499 1502 1510 1512 1517 1522 1525 1528 1530 1534 1537 1538 1540 1541 1543 1546 1549 1551 1553 1555 1558 1559 1560 1561 1562 1563 1564 1565 1566 1566 1568 1570 1569 1571 1572 1572 1572 1573 1573 1574 1574
1502 1496 1496 1493 1494 1493 1492 1498 1501 1500 1501 1507 1513 1519 1523 1526 1529 1532 1534 1537 1539 1542 1544 1546 1547 1549 1552 1554 1556 1558 1560 1561 1561 1561 1561 1563 1567 1567 1568 1567 1568 1570 1571 1571 1570 1571 1572 1572 1572
1492 1491 1490 1491 1492 1493 1493 1494 1497 1496 1501 1508 1514 1519 1522 1526 1528 1531 1532 1535 1538 1541 1543 1544 1544 1546 1549 1551 1555 1557 1560 1559 1558 1560 1561 1562 1564 1566 1567 1567 1568 1566 1567 1567 1569 1568 1570 1570 1570
1493 1492 1490 1490 1489 1489 1493 1496 1495 1500 1502 1510 1514 1518 1522 1524 1527 1530 1532 1533 1536 1539 1541 1542 1542 1546 1549 1550 1553 1555 1556 1555 1556 1561 1560 1559 1560 1564 1564 1567 1566 1566 1567 1566 1566 1568 1568 1568 1568
1493 1497 1492 1489 1487 1490 1490 1500 1500 1500 1504 1508 1513 1518 1522 1523 1526 1528 1531 1533 1535 1537 1538 1541 1545 1549 1552 1552 1552 1553 1554 1554 1560 1551 1559 1558 1558 1561 1562 1562 1562 1563 1564 1563 1563 1563 1566 1567 1567
1496 1496 1509 1483 1485 1488 1489 1514 1495 1498 1500 1505 1509 1514 1518 1522 1524 1527 1530 1534 1536 1537 1539 1545 1545 1543 1545 1549 1549 1549 1550 1551 1557 1558 1556 1554 1555 1557 1558 1559 1558 1558 1559 1558 1559 1561 1562 1563 1564
1500 1517 1503 1491 1481 1485 1487 1505 1492 1494 1499 1501 1506 1510 1515 1520 1523 1526 1528 1532 1536 1539 1540 1541 1544 1545 1548 1547 1546 1548 1549 1550 1550 1553 1554 1552 1553 1553 1554 1556 1556 1553 1555 1555 1556 1558 1558 1559 1561
1513 1507 1498 1493 1485 1484 1489 1496 1489 1490 1493 1497 1502 1507 1512 1516 1520 1524 1527 1531 1535 1538 1536 1536 1535 1535 1544 1547 1544 1546 1549 1551 1550 1554 1553 1553 1552 1550 1551 1552 1552 1551 1550 1552 1552 1554 1555 1557 1559
1493 1498 1500 1487 1480 1487 1490 1493 1490 1485 1489 1494 1499 1505 1509 1512 1518 1522 1526 1530 1533 1534 1535 1535 1535 1537 1542 1543 1538 1547 1552 1551 1550 1554 1553 1552 1550 1548 1547 1547 1548 1548 1547 1547 1550 1552 1553 1552 1553
1496 1501 1504 1488 1482 1486 1490 1494 1483 1483 1483 1489 1495 1501 1507 1511 1515 1519 1523 1528 1531 1533 1537 1535 1537 1540 1544 1540 1541 1546 1551 1543 1550 1552 1552 1551 1548 1546 1544 1543 1543 1543 1541 1541 1542 1545 1548 1548 1547
1498 1503 1501 1500 1486 1483 1490 1502 1491 1481 1482 1488 1492 1496 1503 1508 1513 1517 1521 1525 1528 1531 1533 1534 1536 1539 1541 1542 1542 1541 1545 1548 1549 1550 1550 1549 1546 1544 1542 1541 1540 1538 1538 1537 1537 1539 1540 1542 1544
1512 1490 1486 1490 1503 1526 1492 1538 1497 1484 1484 1484 1491 1496 1502 1505 1510 1515 1519 1523 1527 1529 1531 1533 1536 1539 1540 1541 1543 1544 1545 1544 1547 1548 1548 1547 1545 1543 1540 1538 1536 1534 1534 1533 1534 1536 1535 1537 1540
1501 1486 1491 1493 1504 1510 1510 1528 1506 1485 1495 1492 1488 1494 1498 1502 1507 1512 1516 1521 1525 1527 1529 1531 1534 1538 1540 1543 1543 1545 1545 1547 1547 1548 1548 1547 1544 1541 1540 1536 1532 1530 1530 1528 1528 1530 1531 1532 1534
1485 1492 1494 1497 1510 1546 1521 1523 1529 1511 1500 1496 1490 1492 1496 1501 1508 1512 1515 1518 1523 1526 1528 1530 1532 1536 1539 1542 1545 1547 1548 1547 1548 1546 1545 1545 1542 1541 1537 1534 1529 1528 1528 1525 1524 1524 1527 1529 1530
1489 1508 1547 1547 1548 1552 1511 1513 1515 1493 1490 1492 1494 1493 1497 1502 1507 1511 1514 1517 1521 1524 1527 1530 1532 1534 1537 1540 1542 1545 1547 1546 1546 1545 1544 1543 1542 1538 1535 1532 1529 1528 1526 1525 1522 1521 1523 1525 1526
1497 1509 1544 1549 1553 1544 1505 1528 1514 1486 1490 1489 1491 1493 1494 1499 1504 1508 1513 1517 1520 1523 1526 1529 1533 1536 1537 1538 1540 1542 1543 1544 1546 1544 1544 1543 1540 1536 1535 1532 1529 1527 1526 1524 1523 1521 1521 1522 1523
1494 1510 1494 1518 1511 1533 1522 1503 1494 1488 1488 1485 1484 1493 1497 1498 1500 1506 1512 1516 1521 1524 1526 1528 1532 1535 1538 1539 1541 1542 1544 1545 1545 1543 1543 1541 1538 1537 1535 1531 1529 1527 1525 1523 1522 1522 1522 1522 1523
1486 1484 1517 1522 1538 1547 1523 1515 1519 1501 1492 1489 1493 1493 1498 1502 1503 1503 1509 1516 1522 1525 1526 1528 1531 1534 1536 1539 1542 1544 1545 1544 1542 1542 1542 1540 1539 1538 1535 1532 1529 1527 1525 1524 1523 1522 1522 1522 1522
1493 1499 1497 1507 1518 1540 1544 1532 1497 1499 1496 1507 1513 1509 1499 1503 1505 1503 1509 1515 1520 1524 1529 1533 1534 1534 1534 1538 1541 1544 1545 1545 1543 1541 1542 1540 1540 1538 1535 1532 1530 1527 1525 1524 1523 1522 1523 1523 1523
1477 1488 1496 1528 1525 1519 1523 1529 1497 1501 1511 1516 1518 1524 1515 1508 1509 1506 1510 1515 1517 1527 1537 1538 1531 1535 1539 1537 1540 1542 1545 1546 1544 1543 1541 1542 1541 1538 1536 1533 1532 1530 1527 1526 1525 1524 1524 1524 1523